Epoch = 2013 Apr. 18.0 TT T = 2013 Apr. 21.96896 TT Peri. = 213.59639 e = 0.2436019 Node = 230.76944 2000.0 q = 3.5494006 AU Incl. = 13.69921 a = 4.6925035 AU n = 0.09696102 P = 10.16 years
m1 = 12.0 + 5 log d + 10.0 log r